DW3092 Weather Reports


time (UTC)temp
F
wind
direction
speed
knots
gust
knots
rain 1hr
in
rain 24hr
in
rain mn
in
humidity
%
barometer
mb
20260507010450 58 125 3.5 5.2 0.00 0.10 0.10 94 1006.3
20260507005947 58 131 5.2 7.8 0.00 0.10 0.10 94 1006.4
20260507005445 58 142 3.5 6.1 0.02 0.10 0.10 94 1006.2
20260507004941 58 141 3.5 3.5 0.02 0.10 0.10 94 1006.2
20260507004437 58 146 5.2 6.1 0.00 0.10 0.10 94 1006.1
20260507003936 58 139 5.2 5.2 0.00 0.10 0.10 94 1006.3
20260507003430 58 145 3.5 5.2 0.00 0.10 0.10 94 1006.3
20260507002926 58 140 3.5 4.3 0.00 0.10 0.10 94 1006.2
20260507002422 58 113 1.7 3.5 0.00 0.10 0.10 94 1006.3
20260507001919 58 147 5.2 5.2 0.00 0.10 0.10 94 1006.2
20260507001416 58 127 3.5 3.5 0.00 0.10 0.10 94 1006.2
20260507000914 58 121 2.6 3.5 0.00 0.10 0.10 94 1005.9
20260507000408 58 115 3.5 4.3 0.00 0.10 0.10 94 1006.1
20260506235905 58 112 3.5 4.3 0.00 0.10 0.10 94 1005.9
20260506235402 58 116 2.6 5.2 0.00 0.10 0.10 94 1005.9
20260506234858 58 117 3.5 4.3 0.00 0.10 0.10 94 1005.8
20260506234355 58 136 3.5 5.2 0.02 0.10 0.10 94 1005.7
20260506233853 58 106 1.7 4.3 0.02 0.10 0.10 94 1005.9
20260506233349 58 117 3.5 4.3 0.00 0.09 0.09 94 1005.9
20260506232846 58 112 3.5 5.2 0.02 0.09 0.09 94 1005.7
20260506232342 58 131 2.6 5.2 0.05 0.09 0.09 94 1005.6
20260506231838 59 122 3.5 5.2 0.02 0.09 0.09 94 1005.8
20260506231336 59 110 3.5 4.3 0.00 0.09 0.09 94 1005.9
20260506230833 59 118 2.6 4.3 0.00 0.09 0.09 94 1005.6
20260506230330 59 124 2.6 4.3 0.05 0.09 0.09 94 1005.9
20260506225826 59 114 1.7 3.5 0.05 0.08 0.08 93 1005.7
20260506225324 59 146 3.5 4.3 0.05 0.08 0.08 93 1005.7
20260506224820 59 139 5.2 5.2 0.02 0.07 0.07 93 1005.6
20260506224318 59 113 1.7 4.3 0.00 0.07 0.07 93 1005.9
20260506223814 59 114 1.7 4.3 0.00 0.07 0.07 93 1005.9
20260506223309 59 102 1.7 5.2 0.00 0.07 0.07 93 1006.1
20260506222807 59 123 3.5 3.5 0.02 0.07 0.07 93 1006.1
20260506222305 59 152 4.3 6.1 0.02 0.07 0.07 92 1006.0
20260506221800 59 109 3.5 4.3 0.00 0.07 0.07 92 1006.0
20260506221258 59 116 2.6 3.5 0.00 0.07 0.07 92 1006.1
20260506220755 59 116 1.7 4.3 0.00 0.07 0.07 92 1006.3
20260506220255 59 136 2.6 3.5 0.00 0.07 0.07 92 1006.3
20260506215752 59 129 3.5 3.5 0.00 0.07 0.07 91 1006.2
20260506215248 59 116 3.5 5.2 0.00 0.07 0.07 91 1006.3
20260506214744 59 95 3.5 5.2 0.00 0.07 0.07 91 1006.1
20260506214241 59 140 5.2 8.7 0.02 0.07 0.07 91 1006.1
20260506213740 59 135 3.5 6.1 0.05 0.07 0.07 91 1006.6
20260506213237 60 146 4.3 6.1 0.02 0.06 0.06 90 1006.6
20260506212734 60 111 2.6 4.3 0.00 0.06 0.06 90 1006.5
20260506212230 60 108 2.6 3.5 0.00 0.06 0.06 90 1006.4
20260506211725 60 109 3.5 4.3 0.00 0.06 0.06 90 1006.5
20260506211222 60 75 1.7 6.1 0.00 0.06 0.06 90 1006.6
20260506210719 59 169 1.7 4.3 0.00 0.06 0.06 90 1006.6
20260506210216 59 154 10.4 10.4 0.00 0.06 0.06 90 1006.6
20260506205713 59 139 3.5 3.5 0.00 0.06 0.06 90 1006.7
20260506205208 59 118 2.6 4.3 0.00 0.06 0.06 90 1006.7
20260506204705 59 115 4.3 4.3 0.00 0.06 0.06 90 1006.7
20260506204202 59 146 3.5 5.2 0.00 0.06 0.06 89 1006.6
20260506203700 60 99 2.6 5.2 0.00 0.06 0.06 89 1006.8
20260506203157 60 144 4.3 7.0 0.02 0.06 0.06 89 1007.0
20260506202655 60 130 3.5 4.3 0.02 0.06 0.06 89 1007.1
20260506202150 60 112 3.5 6.1 0.00 0.06 0.06 89 1006.9
20260506201648 60 116 5.2 7.0 0.00 0.06 0.06 90 1006.9
20260506201144 60 141 3.5 4.3 0.00 0.06 0.06 90 1006.8
20260506200641 60 100 1.7 4.3 0.00 0.06 0.06 90 1007.0
20260506200138 60 134 4.3 5.2 0.00 0.06 0.06 90 1006.9
20260506195635 60 127 3.5 5.2 0.00 0.06 0.06 90 1006.8
20260506195131 60 125 3.5 3.5 0.00 0.06 0.06 90 1006.9
20260506194629 60 134 3.5 5.2 0.00 0.06 0.06 89 1007.0
20260506194124 60 146 3.5 5.2 0.02 0.06 0.06 89 1006.9
20260506193623 60 149 5.2 5.2 0.05 0.06 0.06 89 1007.1
20260506193120 60 115 3.5 5.2 0.09 0.05 0.05 88 1007.1
20260506192616 61 114 4.3 8.7 0.09 0.05 0.05 86 1007.0
20260506192112 61 114 3.5 7.0 0.07 0.04 0.04 85 1007.2
20260506191609 62 114 2.6 5.2 0.05 0.03 0.03 85 1007.1
20260506191105 62 103 2.6 4.3 0.05 0.02 0.02 83 1007.0
20260506190603 62 139 4.3 7.0 0.05 0.02 0.02 82 1007.0
20260506190059 63 54 0.9 4.3 0.02 0.02 0.02 81 1007.0
20260506185556 63 127 2.6 3.5 0.02 0.01 0.01 79 1007.2
20260506185053 64 109 1.7 3.5 0.05 0.01 0.01 78 1007.2
20260506184550 65 149 3.5 5.2 0.05 0.01 0.01 74 1007.2
20260506184047 66 116 2.6 4.3 0.02 0.00 0.00 72 1007.1
20260506183543 66 129 2.6 4.3 0.00 0.00 0.00 70 1007.5
20260506183040 67 137 2.6 3.5 0.00 0.00 0.00 68 1007.5
20260506182538 67 130 2.6 5.2 0.00 0.00 0.00 68 1007.6
20260506182035 67 140 3.5 6.1 0.00 0.00 0.00 65 1007.5
20260506181533 68 141 5.2 9.6 0.00 0.00 0.00 64 1007.3
20260506181029 68 149 1.7 5.2 0.00 0.00 0.00 64 1007.5
20260506180525 68 134 4.3 9.6 0.00 0.00 0.00 61 1007.5
20260506180022 69 118 2.6 5.2 0.00 0.00 0.00 60 1007.9
20260506175519 70 169 3.5 5.2 0.00 0.00 0.00 57 1007.4
20260506175015 70 123 2.6 7.0 0.00 0.00 0.00 56 1007.5
20260506174514 71 152 5.2 9.6 0.00 0.00 0.00 55 1007.2
20260506174010 71 116 3.5 5.2 0.00 0.00 0.00 54 1007.4
20260506173508 71 74 0.9 9.6 0.00 0.00 0.00 54 1007.7
20260506173004 71 125 4.3 8.7 0.00 0.00 0.00 54 1007.4
20260506172502 72 139 7.8 9.6 0.00 0.00 0.00 53 1007.9
20260506171957 72 135 2.6 7.0 0.00 0.00 0.00 53 1007.3
20260506171455 71 122 3.5 7.8 0.00 0.00 0.00 54 1007.6
20260506170953 71 136 4.3 7.0 0.00 0.00 0.00 54 1007.7
20260506170449 72 144 2.6 5.2 0.00 0.00 0.00 53 1007.5
20260506165948 72 118 1.7 7.0 0.00 0.00 0.00 53 1007.5
20260506165446 73 113 4.3 7.8 0.00 0.00 0.00 52 1007.5
20260506164942 72 157 6.1 7.8 0.00 0.00 0.00 53 1007.7
20260506164439 71 144 3.5 9.6 0.00 0.00 0.00 53 1007.7
20260506163936 71 121 5.2 8.7 0.00 0.00 0.00 53 1008.0
20260506163431 71 139 4.3 7.0 0.00 0.00 0.00 53 1008.1
20260506162926 71 154 3.5 9.6 0.00 0.00 0.00 54 1008.0
20260506162424 71 131 4.3 7.0 0.00 0.00 0.00 55 1008.0
20260506161922 71 102 2.6 5.2 0.00 0.00 0.00 56 1008.2
20260506161420 71 134 2.6 4.3 0.00 0.00 0.00 56 1008.1
20260506160917 71 273 0.9 5.2 0.00 0.00 0.00 56 1008.2
20260506160414 70 84 1.7 5.2 0.00 0.00 0.00 56 1008.4
20260506155912 70 141 3.5 7.8 0.00 0.00 0.00 56 1008.4
20260506155409 70 35 1.7 3.5 0.00 0.00 0.00 57 1008.6
20260506153530 70 119 5.2 5.2 0.00 0.00 0.00 57 1008.7
20260506153028 70 232 2.6 3.5 0.00 0.00 0.00 57 1008.9
20260506152525 70 117 2.6 7.8 0.00 0.00 0.00 56 1008.8
20260506152023 70 122 1.7 4.3 0.00 0.00 0.00 58 1008.9
20260506151520 70 157 4.3 4.3 0.00 0.00 0.00 58 1009.2
20260506151018 70 122 5.2 7.0 0.00 0.00 0.00 58 1009.1
20260506150513 70 145 2.6 7.0 0.00 0.00 0.00 58 1009.1
20260506150011 70 140 4.3 8.7 0.00 0.00 0.00 57 1009.0
20260506145507 71 122 5.2 7.0 0.00 0.00 0.00 57 1009.1
20260506145005 70 117 2.6 4.3 0.00 0.00 0.00 58 1009.1
20260506144501 70 135 1.7 5.2 0.00 0.00 0.00 60 1009.1
20260506143959 69 148 5.2 6.1 0.00 0.00 0.00 60 1009.1
20260506143456 69 137 6.1 7.8 0.00 0.00 0.00 60 1009.2
20260506142955 69 118 3.5 5.2 0.00 0.00 0.00 61 1009.1
20260506142452 69 40 3.5 7.0 0.00 0.00 0.00 62 1009.2
20260506141949 68 105 6.1 6.1 0.00 0.00 0.00 63 1009.0
20260506141447 68 113 5.2 7.0 0.00 0.00 0.00 64 1009.2
20260506140946 68 123 3.5 8.7 0.00 0.00 0.00 64 1009.0
20260506140442 68 139 4.3 7.0 0.00 0.00 0.00 65 1009.1
20260506135939 67 153 5.2 5.2 0.00 0.00 0.00 65 1009.1
20260506135437 67 144 6.1 6.1 0.00 0.00 0.00 66 1009.3
20260506134932 67 154 4.3 5.2 0.00 0.00 0.00 66 1009.5
20260506134429 66 146 7.8 8.7 0.00 0.00 0.00 67 1009.2
20260506133926 66 156 6.1 8.7 0.00 0.00 0.00 65 1009.2
20260506133423 66 145 5.2 5.2 0.00 0.00 0.00 67 1009.3
20260506132919 67 131 6.1 7.8 0.00 0.00 0.00 66 1009.5
20260506132416 67 119 4.3 7.0 0.00 0.00 0.00 66 1009.6
20260506131914 66 141 5.2 5.2 0.00 0.00 0.00 67 1009.9
20260506131410 66 85 2.6 7.0 0.00 0.00 0.00 68 1009.9
20260506130908 65 115 1.7 7.0 0.00 0.00 0.00 70 1009.8
20260506130403 65 126 2.6 3.5 0.00 0.00 0.00 71 1009.6
20260506125902 65 155 1.7 5.2 0.00 0.00 0.00 69 1009.9
20260506125400 65 144 6.1 7.8 0.00 0.00 0.00 69 1009.5
20260506124858 65 147 7.0 7.0 0.00 0.00 0.00 70 1009.6
20260506124354 64 131 4.3 5.2 0.00 0.00 0.00 70 1009.5
20260506123853 65 111 1.7 4.3 0.00 0.00 0.00 70 1009.7
20260506123351 64 115 4.3 4.3 0.00 0.00 0.00 72 1009.6
20260506122848 64 112 2.6 4.3 0.00 0.00 0.00 72 1009.8
20260506122344 64 98 2.6 5.2 0.00 0.00 0.00 72 1009.8
20260506121843 64 79 1.7 5.2 0.00 0.00 0.00 72 1009.8
20260506121339 63 115 3.5 7.0 0.00 0.00 0.00 73 1009.7
20260506120836 63 136 2.6 5.2 0.00 0.00 0.00 74 1009.7
20260506120334 63 128 2.6 4.3 0.00 0.00 0.00 74 1009.6
20260506115831 63 132 1.7 6.1 0.00 0.00 0.00 74 1009.9
20260506115329 62 96 1.7 4.3 0.00 0.00 0.00 74 1009.8
20260506114827 62 117 2.6 4.3 0.00 0.00 0.00 76 1009.9
20260506114325 61 110 1.7 5.2 0.00 0.00 0.00 76 1009.9
20260506113823 61 152 5.2 5.2 0.00 0.00 0.00 76 1009.9
20260506113320 61 109 3.5 4.3 0.00 0.00 0.00 77 1010.0
20260506112817 61 114 1.7 3.5 0.00 0.00 0.00 77 1010.1
20260506112314 61 146 3.5 7.8 0.00 0.00 0.00 77 1010.2
20260506111811 61 115 3.5 5.2 0.00 0.00 0.00 77 1010.2
20260506111309 60 128 3.5 7.0 0.00 0.00 0.00 77 1010.1
20260506110807 60 95 1.7 3.5 0.00 0.00 0.00 78 1010.1
20260506110303 60 122 3.5 5.2 0.00 0.00 0.00 78 1010.0
20260506105800 60 151 4.3 5.2 0.00 0.00 0.00 78 1009.8
20260506105257 60 103 1.7 3.5 0.00 0.00 0.00 78 1009.9
20260506104755 60 117 1.7 4.3 0.00 0.00 0.00 79 1010.4
20260506104252 59 115 1.7 4.3 0.00 0.00 0.00 79 1010.2
20260506103749 59 148 5.2 5.2 0.00 0.00 0.00 79 1009.9
20260506103247 59 123 3.5 5.2 0.00 0.00 0.00 79 1009.7
20260506102744 59 94 1.7 4.3 0.00 0.00 0.00 80 1009.9
20260506102242 59 117 1.7 4.3 0.00 0.00 0.00 79 1010.0
20260506101739 59 152 4.3 5.2 0.00 0.00 0.00 79 1010.2
20260506101235 59 130 2.6 4.3 0.00 0.00 0.00 79 1010.0
20260506100733 59 120 1.7 4.3 0.00 0.00 0.00 79 1010.0
20260506100231 59 106 1.7 5.2 0.00 0.00 0.00 79 1010.0
20260506095729 59 110 4.3 4.3 0.00 0.00 0.00 79 1009.8
20260506095226 59 117 2.6 4.3 0.00 0.00 0.00 79 1009.9
20260506094723 59 127 2.6 3.5 0.00 0.00 0.00 79 1010.0
20260506094221 59 116 2.6 5.2 0.00 0.00 0.00 79 1009.9
20260506093720 59 138 4.3 5.2 0.00 0.00 0.00 78 1009.6
20260506093216 59 107 3.5 4.3 0.00 0.00 0.00 78 1009.5
20260506092714 59 105 2.6 3.5 0.00 0.00 0.00 78 1009.9
20260506092211 59 140 3.5 4.3 0.00 0.00 0.00 78 1009.8
20260506091709 59 123 2.6 3.5 0.00 0.00 0.00 78 1009.8
20260506091206 59 127 2.6 4.3 0.00 0.00 0.00 78 1009.8
20260506090704 59 144 3.5 4.3 0.00 0.00 0.00 77 1010.0
20260506090200 59 120 3.5 7.0 0.00 0.00 0.00 77 1009.8
20260506085657 59 125 3.5 5.2 0.00 0.00 0.00 77 1009.7
20260506085153 59 119 2.6 4.3 0.00 0.00 0.00 77 1009.8
20260506084650 60 126 3.5 4.3 0.00 0.00 0.00 77 1010.0
20260506084147 60 137 2.6 6.1 0.00 0.00 0.00 76 1009.8
20260506083644 60 123 2.6 6.1 0.00 0.00 0.00 76 1010.0
20260506083141 60 144 5.2 5.2 0.00 0.00 0.00 76 1009.9
20260506082638 60 157 3.5 5.2 0.00 0.00 0.00 76 1009.9
20260506082133 60 114 3.5 5.2 0.00 0.00 0.00 75 1010.0
20260506081632 60 136 2.6 4.3 0.00 0.00 0.00 75 1010.0
20260506081129 60 140 5.2 5.2 0.00 0.00 0.00 75 1009.9
20260506080627 60 109 4.3 5.2 0.00 0.00 0.00 75 1009.7
20260506080123 60 147 4.3 4.3 0.00 0.00 0.00 74 1009.8
20260506073107 61 148 4.3 7.8 0.00 0.00 0.00 72 1009.9
20260506072603 61 114 3.5 7.0 0.00 0.00 0.00 72 1009.9
20260506072102 61 145 5.2 5.2 0.00 0.00 0.00 72 1009.8
20260506071559 61 145 6.1 8.7 0.00 0.00 0.00 71 1009.5
20260506071056 61 123 2.6 5.2 0.00 0.00 0.00 71 1009.8
20260506070553 62 143 5.2 5.2 0.00 0.00 0.00 71 1009.4
20260506062028 63 147 5.2 7.8 0.00 0.00 0.00 67 1009.4
20260506061523 63 135 3.5 7.8 0.00 0.00 0.00 67 1009.4
20260506061021 63 153 3.5 7.0 0.00 0.00 0.00 67 1009.3
20260506060520 63 126 4.3 5.2 0.00 0.00 0.00 66 1009.5
20260506050948 64 141 2.6 4.3 0.00 0.00 0.00 63 1009.8
20260506050446 64 112 3.5 5.2 0.00 0.00 0.00 63 1009.5
20260506044936 64 126 2.6 5.2 0.00 0.00 0.00 62 1009.8
20260506044435 63 147 5.2 7.0 0.00 0.00 0.00 62 1009.8
20260506043931 63 113 3.5 6.1 0.00 0.00 0.00 62 1010.0
20260506043428 63 94 2.6 4.3 0.00 0.00 0.00 62 1009.9
20260506042926 63 123 3.5 5.2 0.00 0.00 0.00 62 1010.1
20260506042425 63 133 3.5 4.3 0.00 0.00 0.00 62 1009.7
20260506041923 63 117 1.7 5.2 0.00 0.00 0.00 62 1009.9
20260506041420 63 169 0.0 9.6 0.00 0.00 0.00 62 1009.9
20260506040918 63 131 2.6 5.2 0.00 0.00 0.00 62 1010.0
20260506040415 63 115 3.5 5.2 0.00 0.00 0.00 62 1009.9
20260506035911 63 119 3.5 6.1 0.00 0.00 0.00 62 1010.0
20260506035409 63 109 1.7 4.3 0.00 0.00 0.00 62 1010.0
20260506034905 63 121 2.6 5.2 0.00 0.00 0.00 62 1009.8
20260506034402 63 142 6.1 6.1 0.00 0.00 0.00 62 1009.9
20260506033859 63 128 3.5 5.2 0.00 0.00 0.00 62 1010.0
20260506033356 63 132 2.6 4.3 0.00 0.00 0.00 62 1009.9
20260506032853 63 152 5.2 5.2 0.00 0.00 0.00 62 1010.0
20260506032350 63 133 4.3 5.2 0.00 0.00 0.00 61 1009.6
20260506031847 63 114 3.5 7.8 0.00 0.00 0.00 61 1009.6
20260506031344 63 120 2.6 4.3 0.00 0.00 0.00 61 1009.7
20260506030842 63 141 3.5 7.8 0.00 0.00 0.00 61 1009.8
20260506030340 63 133 3.5 7.8 0.00 0.00 0.00 61 1009.7
20260506025836 63 137 3.5 7.0 0.00 0.00 0.00 61 1009.8
20260506025332 63 106 2.6 9.6 0.00 0.00 0.00 60 1010.0
20260506024830 63 129 2.6 7.0 0.00 0.00 0.00 61 1009.8
20260506024326 63 107 2.6 7.0 0.00 0.00 0.00 60 1009.7
20260506023823 63 132 4.3 5.2 0.00 0.00 0.00 60 1010.0
20260506023320 64 154 3.5 7.8 0.00 0.00 0.00 59 1009.8
20260506022816 64 134 4.3 9.6 0.00 0.00 0.00 59 1009.8
20260506022314 64 120 3.5 7.0 0.00 0.00 0.00 59 1009.7
20260506021812 64 133 4.3 8.7 0.00 0.00 0.00 58 1009.8
20260506021309 64 137 7.8 8.7 0.00 0.00 0.00 58 1009.9
20260506020805 64 145 5.2 8.7 0.00 0.00 0.00 58 1009.9
20260506020303 64 104 2.6 6.1 0.00 0.00 0.00 58 1009.9
20260506015801 64 136 5.2 6.1 0.00 0.00 0.00 58 1009.6
20260506015258 64 120 4.3 9.6 0.00 0.00 0.00 57 1009.7
20260506014755 64 142 5.2 5.2 0.00 0.00 0.00 57 1009.7
20260506014251 65 123 3.5 6.1 0.00 0.00 0.00 57 1009.4
20260506013748 65 89 3.5 7.0 0.00 0.00 0.00 56 1009.4
20260506013246 65 65 0.9 7.0 0.00 0.00 0.00 56 1009.3
20260506012742 65 135 5.2 7.0 0.00 0.00 0.00 56 1009.4
20260506012239 65 138 2.6 4.3 0.00 0.00 0.00 56 1009.4
20260506011736 66 107 2.6 5.2 0.00 0.00 0.00 55 1009.4
20260506011232 66 139 3.5 7.8 0.00 0.00 0.00 55 1009.2